Theta_e
296 296 297 297 297 298 298 298 298 298 298 299 300 300 302 304 305 305 305 305 305 304 305 305 305 305 305 305 305 306 306 307 306 306 306 306 306 306 307 307 308 308 308 308 309 311 313 311 308 308 307 307 307 306 307 308 308 310 312 311 313 319 321 318 315 314 313 312 313 314 313 312 312 313 314 314 316 322 336 346 336 319 317 322 316 317 334
297 296 296 297 297 298 298 298 297 297 298 299 300 301 303 303 304 305 305 305 304 304 305 306 306 306 305 305 305 305 305 305 306 307 307 307 308 309 309 308 309 309 309 309 311 312 313 313 311 309 309 307 307 307 307 308 307 310 316 316 316 320 321 319 319 315 313 315 314 313 313 312 316 319 314 312 317 320 329 336 328 317 320 324 317 321 339
297 296 296 297 297 297 298 298 298 297 298 299 300 301 302 304 305 305 306 305 304 304 304 305 305 305 304 305 305 305 305 306 306 307 307 307 308 310 310 309 309 309 310 311 312 312 313 313 312 311 309 308 308 307 307 308 308 309 314 317 318 323 327 330 326 318 317 318 314 315 316 313 316 318 313 313 315 314 321 324 318 318 322 320 320 329 341
296 296 297 297 297 298 298 298 297 297 298 299 300 301 303 305 306 306 306 306 305 303 302 302 303 304 304 305 305 306 306 305 305 306 307 307 308 309 310 309 309 309 310 311 312 312 312 312 312 311 310 310 309 307 308 308 308 311 316 319 322 324 329 336 331 322 324 322 313 315 318 314 314 316 313 313 313 317 326 325 320 325 325 320 328 338 336
296 296 297 297 297 298 298 298 297 297 298 299 301 302 304 305 306 305 305 306 305 303 302 302 303 304 304 305 305 305 305 304 305 307 308 309 309 310 310 309 310 312 312 314 315 313 312 312 312 312 311 312 311 308 309 309 310 316 318 320 325 319 318 326 325 323 328 324 314 316 318 316 316 317 315 314 316 322 325 324 327 331 324 322 336 343 333
296 296 296 296 297 297 297 298 298 297 297 299 301 303 304 305 305 305 305 305 305 304 304 303 303 303 304 304 304 305 305 305 306 308 309 310 309 310 311 310 311 311 312 316 317 316 317 318 317 315 315 315 314 311 310 309 313 319 318 322 327 323 322 324 321 322 327 323 317 317 318 318 315 317 320 317 318 322 321 327 338 333 325 333 343 340 333
296 296 296 296 297 297 297 297 298 297 297 298 300 302 303 303 303 304 304 304 304 304 304 304 304 304 304 304 304 305 305 306 307 307 309 311 310 310 312 313 313 313 313 317 320 320 321 323 322 320 321 320 317 314 314 313 315 320 321 322 324 323 325 327 325 327 328 327 326 318 314 317 314 316 323 321 322 330 329 334 341 334 333 346 347 337 331
295 295 296 296 297 297 297 298 298 297 297 298 299 300 301 301 302 302 303 304 304 304 305 305 305 306 305 306 306 306 306 308 308 308 310 313 313 312 313 315 316 316 317 319 320 319 320 323 323 323 322 322 320 318 319 317 315 317 319 319 322 324 323 325 335 336 325 327 333 322 314 318 315 314 321 321 321 327 327 327 330 326 327 337 342 335 328
295 295 296 296 296 297 297 297 297 297 298 298 298 299 299 300 301 302 303 304 304 305 305 305 307 308 307 307 308 308 309 310 310 310 311 313 314 315 315 316 316 317 319 320 319 318 318 319 321 320 319 320 320 319 319 316 313 314 316 317 322 327 325 328 341 337 322 324 331 323 318 319 315 314 318 319 320 322 323 326 327 326 326 329 332 328 328
295 295 295 296 296 296 296 297 297 297 298 298 297 298 298 299 300 301 303 304 305 304 304 305 308 309 307 307 308 308 310 312 312 314 314 313 315 316 316 317 318 319 322 322 320 318 317 318 318 317 316 317 317 317 316 315 314 314 319 321 322 331 334 332 337 332 320 326 332 325 320 316 316 325 327 321 323 325 323 324 328 332 333 329 325 324 333
294 295 295 296 296 296 296 297 297 297 298 298 298 298 298 299 300 301 303 305 305 304 304 306 308 308 307 307 309 310 311 313 313 314 315 315 316 317 316 317 319 322 324 322 319 318 317 317 317 316 316 316 316 315 314 315 316 316 323 325 323 334 338 331 336 334 321 325 331 323 319 320 326 340 340 329 327 327 323 324 326 330 334 334 332 334 338
294 294 295 296 296 296 296 297 297 297 298 298 298 298 298 298 299 301 303 305 305 304 305 306 306 306 307 308 311 312 312 313 314 314 315 316 317 316 316 318 320 322 323 320 318 317 317 319 320 320 319 317 316 315 312 315 317 317 324 328 328 335 333 326 334 337 327 330 332 319 318 328 336 343 342 335 331 329 329 331 330 328 335 344 345 339 337
294 294 295 295 295 296 296 296 297 297 297 298 298 298 298 298 299 301 303 305 305 305 305 305 305 306 307 308 310 312 312 313 314 316 316 317 318 317 317 319 321 321 320 317 317 318 318 323 327 324 321 321 319 316 315 317 317 316 320 327 332 336 333 327 328 330 328 332 333 326 324 331 338 342 342 337 332 327 325 322 320 325 336 345 346 340 335
294 294 294 295 295 295 296 296 297 297 297 298 298 297 298 298 298 300 302 304 306 305 305 306 306 306 307 308 309 312 313 313 313 315 316 316 318 319 317 318 319 317 316 316 318 320 320 323 327 323 321 326 322 316 316 316 316 319 320 323 330 333 330 325 324 326 330 331 331 332 329 327 333 337 336 334 329 326 329 324 318 327 336 337 338 338 336
294 294 294 294 295 295 295 296 296 297 297 297 297 297 298 298 298 299 301 304 305 305 306 307 307 306 306 307 310 312 313 313 313 315 315 315 316 317 316 316 317 316 317 319 321 324 322 321 324 323 322 324 319 314 317 314 313 320 325 324 328 327 324 326 325 324 331 336 333 330 326 326 334 337 337 338 333 331 337 331 319 327 338 335 333 335 337
294 294 294 294 295 295 295 296 296 297 297 297 297 297 298 298 298 299 301 303 305 307 307 306 305 305 306 307 309 311 312 313 313 315 316 316 315 314 314 315 317 317 321 323 323 325 323 319 320 321 318 318 317 314 315 313 311 316 322 325 327 324 328 339 336 325 331 341 337 328 326 328 334 339 341 342 336 333 333 325 320 329 337 334 332 334 337
293 294 294 294 294 295 295 295 296 296 297 297 297 297 298 298 298 299 300 302 305 306 306 305 305 305 307 308 309 310 312 312 313 315 316 316 315 314 314 315 317 319 322 324 323 323 324 321 322 323 319 315 316 315 314 315 313 312 316 323 326 323 330 342 336 324 329 338 331 326 328 327 328 336 342 340 337 332 323 321 330 338 335 331 334 337 337
294 293 294 294 294 294 295 295 296 296 297 297 297 297 297 297 297 298 300 302 304 305 305 305 305 305 307 309 309 310 311 313 314 314 315 316 316 315 314 316 321 322 322 324 323 322 323 323 321 322 322 318 317 318 316 316 316 315 316 320 321 320 325 331 329 322 325 332 327 321 326 330 330 336 338 334 331 326 322 329 339 340 335 334 334 335 335
294 293 294 294 294 294 295 295 295 296 296 297 297 297 297 297 297 298 299 301 303 305 305 305 305 305 306 307 308 308 309 311 313 313 315 317 316 315 315 317 320 322 322 325 324 319 321 324 321 321 325 325 323 321 317 316 318 318 317 318 320 321 320 322 325 321 321 331 334 325 326 332 331 331 333 330 327 328 333 337 336 334 335 334 331 332 335
294 294 294 294 294 294 295 295 295 296 296 297 297 297 297 297 297 297 298 300 302 303 303 303 304 305 306 306 307 307 308 310 312 312 314 316 315 316 321 321 319 320 322 324 323 320 321 324 322 321 325 327 326 323 320 321 320 317 316 320 324 324 321 321 325 321 319 328 331 325 327 330 326 326 333 334 333 337 341 338 332 332 334 333 331 334 336
295 294 293 294 294 294 295 295 295 296 296 296 296 296 297 297 296 296 297 298 300 302 304 304 304 305 306 305 305 306 307 308 310 311 313 316 316 317 321 320 319 321 322 321 321 320 320 322 322 322 324 325 326 324 322 324 322 317 318 320 319 318 321 324 325 322 323 327 323 320 326 327 324 327 334 333 332 336 341 340 335 332 332 333 336 337 336
295 294 294 294 294 294 294 295 295 295 296 296 296 296 297 297 296 295 296 297 298 300 303 304 304 304 304 305 306 306 307 307 308 309 312 316 318 319 319 320 321 322 321 321 320 319 319 321 322 324 325 324 325 326 325 325 324 322 322 322 318 317 320 326 328 324 326 327 324 323 327 325 323 326 329 330 332 333 336 340 338 333 332 334 336 336 334
296 295 294 294 294 294 294 295 295 295 296 296 296 296 297 296 296 295 296 297 299 300 302 303 304 306 307 307 307 308 307 308 308 308 310 314 320 321 320 320 322 322 321 321 321 320 321 322 321 323 325 322 322 325 326 324 323 322 323 324 323 319 320 327 331 327 325 326 326 327 328 326 325 327 325 326 330 332 333 338 337 335 336 335 334 336 335
296 295 295 294 294 294 294 294 295 295 295 296 296 296 296 296 296 295 296 298 300 304 306 305 306 310 311 308 306 307 308 309 310 310 310 311 317 322 322 319 319 322 323 322 320 320 322 321 320 322 324 320 320 325 326 323 322 323 326 329 328 323 323 328 331 329 330 331 329 328 327 327 329 332 331 328 329 330 332 334 334 334 336 336 336 337 336
296 296 295 294 294 294 294 294 295 295 295 296 296 296 296 296 295 295 297 298 300 303 307 308 307 308 308 306 306 307 308 309 310 311 310 310 314 319 320 316 315 317 321 322 321 322 322 320 320 323 323 321 323 326 325 324 323 324 326 328 325 322 325 329 330 330 332 331 329 327 326 327 329 332 332 330 330 331 331 329 329 332 334 335 335 336 336
296 296 295 294 294 294 294 294 295 295 295 296 296 296 296 295 295 295 296 298 301 303 306 308 309 307 305 306 306 307 308 308 309 310 310 311 313 315 316 316 317 317 318 321 322 321 321 320 321 324 324 322 324 326 325 324 325 325 326 326 323 323 327 327 326 327 328 326 326 326 327 328 328 329 329 329 329 331 330 328 328 331 333 334 334 333 336
296 296 295 294 294 294 294 294 295 295 295 296 296 295 295 295 297 298 298 300 304 307 307 308 308 306 305 306 306 306 307 308 309 310 310 311 313 313 314 317 320 319 317 319 319 317 318 319 321 324 323 320 322 325 324 325 326 327 326 325 325 327 328 326 326 328 329 328 327 327 330 330 327 326 327 327 327 329 329 327 327 327 328 332 333 331 330
296 296 296 294 294 294 294 294 295 295 295 295 295 295 297 299 302 302 301 301 303 307 308 307 306 306 307 308 307 306 308 309 309 310 311 311 312 313 313 316 321 321 318 320 320 318 318 321 321 321 321 321 324 326 325 326 328 327 325 324 324 326 326 327 329 330 329 329 328 328 330 329 324 322 324 325 325 327 327 326 325 323 323 327 332 331 329
296 296 296 295 294 294 294 294 295 295 295 296 295 296 301 306 306 304 304 303 302 305 307 306 306 308 310 309 307 307 308 310 310 310 310 311 311 313 315 317 321 320 317 318 320 320 321 323 323 321 322 324 325 325 326 328 327 325 324 325 324 323 323 326 329 327 325 327 329 329 329 326 322 322 324 323 323 325 324 323 323 322 321 324 327 328 328
296 296 295 295 294 294 294 295 294 294 295 296 295 297 304 309 306 303 304 303 303 305 306 306 307 308 308 307 308 309 309 309 309 310 310 312 313 314 315 316 318 320 321 321 321 320 320 322 323 322 320 322 324 324 325 327 325 323 324 325 324 324 323 323 325 328 326 325 326 326 325 323 320 321 322 321 321 321 321 321 322 321 321 322 324 323 323
296 296 295 295 294 294 293 294 294 294 295 296 296 299 306 310 307 305 305 304 302 303 305 306 307 307 307 307 309 311 309 308 309 310 310 310 312 313 311 311 315 319 322 321 319 317 317 319 322 321 317 320 325 326 324 326 327 324 322 322 322 324 326 324 324 326 325 323 322 322 322 322 322 321 319 318 317 317 318 319 319 318 317 318 319 319 317
296 296 295 294 293 292 293 293 294 295 295 296 296 298 301 303 303 303 305 303 300 299 303 307 308 308 310 311 310 309 309 308 310 311 310 311 312 311 310 313 317 317 316 316 315 315 316 318 319 317 316 321 326 327 325 326 327 323 322 322 322 322 323 323 322 323 323 322 323 322 321 321 322 319 316 315 315 315 317 317 315 313 314 315 315 315 315
296 296 294 293 292 293 294 295 296 296 296 297 297 297 296 297 300 302 301 299 297 297 302 307 308 309 311 312 312 311 309 310 313 313 311 312 313 312 315 320 320 315 314 316 316 315 317 320 319 316 317 322 327 328 325 323 323 322 322 322 320 318 319 320 320 321 322 324 325 324 320 318 317 314 313 314 314 313 314 314 313 313 314 315 316 316 315
296 294 293 293 294 296 297 297 297 298 298 297 297 297 298 302 306 306 302 299 300 301 304 307 309 311 312 312 313 313 308 308 312 312 313 314 313 311 315 320 319 316 314 314 316 315 317 321 322 321 321 323 326 326 324 320 320 322 322 320 320 320 320 321 321 320 321 323 322 319 315 314 314 313 313 314 313 312 312 312 313 314 315 315 315 315 314
294 293 293 295 297 298 299 299 298 298 298 297 299 302 304 306 308 308 305 304 305 308 309 308 309 311 313 313 317 316 309 307 311 313 316 317 313 312 315 316 315 317 314 311 314 316 314 317 321 321 320 321 322 323 323 322 321 323 323 321 322 321 319 319 320 318 319 321 318 314 313 314 315 314 314 314 313 313 313 314 314 315 316 315 314 314 315
293 293 294 297 299 300 301 301 299 299 300 301 301 303 305 304 304 305 305 306 306 309 310 309 309 312 313 314 316 315 310 312 316 315 316 317 312 315 322 319 315 318 318 315 316 315 310 314 321 320 318 320 320 320 323 324 323 323 323 321 322 322 320 320 319 317 317 318 315 312 313 314 314 313 313 313 313 314 315 317 317 317 316 315 314 315 317
293 294 296 298 301 302 303 302 301 300 302 302 302 302 303 303 304 304 305 305 306 307 308 308 310 313 312 312 317 317 313 315 316 313 314 315 309 311 320 319 314 317 319 316 315 314 312 320 325 320 316 318 318 317 322 325 323 324 325 321 320 322 322 320 318 315 314 314 313 313 314 313 313 314 313 313 313 314 315 316 315 315 316 316 314 314 314
293 295 297 299 302 305 306 305 302 300 300 301 302 304 305 305 306 307 307 307 307 307 307 307 310 311 310 311 315 315 310 312 315 313 312 313 309 309 315 314 311 314 313 309 312 318 319 323 325 318 312 314 315 315 319 323 322 323 323 320 318 318 319 319 318 316 315 315 315 314 315 314 314 314 313 313 313 313 314 314 313 312 313 313 311 310 309
293 295 295 298 302 304 304 302 299 298 300 302 304 307 308 306 308 310 309 308 308 308 307 308 310 312 312 314 316 313 307 309 316 317 313 312 311 310 311 309 309 313 312 309 316 324 320 316 318 317 313 313 314 313 315 319 319 318 318 317 316 315 317 318 318 316 316 316 315 315 316 316 314 313 313 313 312 311 311 312 311 308 307 307 306 307 308
294 294 294 296 298 298 298 298 297 299 302 304 306 308 308 307 309 311 309 309 310 309 308 310 312 312 311 313 315 314 309 306 310 313 312 312 312 311 309 308 308 309 308 310 319 326 321 314 315 316 315 315 315 313 314 318 318 315 316 317 316 314 315 316 313 311 312 313 313 312 313 314 314 314 314 315 315 313 312 311 309 306 305 306 307 307 308
293 293 293 295 295 294 296 298 298 300 305 306 306 307 308 308 310 309 306 308 312 311 310 312 312 312 312 311 312 314 312 308 309 312 312 313 315 311 307 308 309 307 306 310 315 320 318 314 313 316 320 322 319 315 316 319 318 315 316 318 315 312 312 313 310 308 309 312 313 311 309 308 310 311 310 310 313 314 311 308 306 306 306 307 307 307 308
293 293 293 294 294 294 297 299 300 303 306 307 306 307 308 308 309 308 306 309 312 311 309 310 310 311 313 312 311 314 313 309 310 312 311 311 314 311 307 308 307 305 307 313 315 316 315 312 310 315 323 324 319 315 316 319 318 317 318 319 316 312 312 313 312 309 308 309 311 310 308 306 306 308 307 307 308 309 307 305 305 307 307 308 308 308 308
294 294 294 294 295 296 299 302 303 305 306 306 306 307 307 307 308 309 309 310 311 309 309 311 312 313 313 311 311 314 312 307 309 312 310 309 310 310 307 307 306 306 311 316 316 314 313 312 314 319 322 320 317 315 316 317 318 318 318 317 312 308 308 310 310 308 307 306 307 308 307 307 307 308 309 308 308 308 307 307 307 308 308 308 308 308 308
295 296 295 296 299 300 301 304 305 305 306 307 307 307 307 310 311 311 310 310 310 309 310 312 312 311 312 313 313 313 312 310 310 310 308 307 308 307 305 306 308 311 314 314 312 311 311 312 315 319 318 316 316 316 316 316 317 316 315 313 309 306 307 308 309 310 309 308 307 307 307 307 308 308 309 309 309 308 307 307 307 307 307 307 307 307 307
297 298 298 299 303 303 302 303 305 305 306 307 307 307 309 311 312 311 311 310 309 308 309 312 310 309 312 316 315 313 313 312 310 308 307 307 308 307 306 308 311 312 311 310 311 311 311 312 314 314 313 314 316 316 316 317 317 316 314 313 312 311 312 312 312 313 312 310 307 306 306 306 307 308 308 309 309 309 308 307 307 307 307 307 307 306 307
297 298 298 301 304 304 302 302 305 306 307 308 310 310 310 310 309 309 310 310 309 307 308 311 310 309 312 314 313 313 314 310 307 309 311 309 306 307 308 309 309 309 309 311 313 313 314 317 319 316 312 314 316 315 315 316 317 316 315 314 314 314 314 314 314 313 310 307 306 306 306 307 307 308 308 308 309 309 309 308 308 307 307 307 306 306 306
296 297 298 301 304 304 303 304 305 306 306 306 308 309 310 310 311 310 309 308 308 307 309 310 310 311 313 312 310 315 319 313 307 309 313 309 306 309 310 308 308 308 308 310 313 315 316 318 318 314 312 314 315 315 315 315 315 314 313 313 313 313 313 313 314 312 308 306 306 306 305 307 308 308 308 308 309 309 309 309 308 307 307 307 306 306 306
296 297 298 301 303 304 304 304 305 306 305 303 303 305 307 310 312 311 309 309 308 307 308 309 310 313 316 315 311 313 317 313 306 308 312 309 306 308 309 307 308 309 310 313 316 316 316 317 317 315 313 314 314 315 315 315 314 313 312 312 313 314 314 314 314 310 307 306 305 305 305 307 308 308 308 308 308 308 309 308 308 308 307 307 306 306 306
296 296 297 299 300 301 303 303 304 305 304 302 303 307 310 311 311 310 309 309 308 306 306 309 309 309 313 314 309 307 310 310 306 307 309 308 306 307 307 306 305 306 309 314 318 317 316 317 317 315 313 314 315 315 315 313 312 312 312 311 311 310 310 310 310 308 307 307 306 306 306 307 307 307 307 307 308 308 309 308 308 308 308 307 306 306 306
296 296 297 298 300 301 303 304 304 304 301 300 303 309 312 312 312 311 309 308 309 308 310 312 311 309 309 309 307 307 310 311 308 306 306 306 307 307 305 304 306 309 310 312 315 316 316 316 315 314 314 316 315 314 313 312 312 312 310 307 306 305 305 305 306 307 308 308 307 307 307 307 307 307 307 307 308 309 309 308 308 308 307 307 307 306 305
295 295 298 300 300 301 301 301 301 301 299 297 299 305 310 312 313 311 308 308 310 311 311 311 310 307 307 307 306 306 308 310 309 308 308 309 309 308 305 306 311 315 314 312 312 314 315 315 315 315 316 316 314 313 312 312 311 309 306 304 304 305 305 306 307 308 308 308 308 308 308 307 307 308 308 307 308 308 308 308 308 308 307 307 307 307 306
295 296 298 300 299 298 297 298 299 300 299 298 301 306 308 309 310 310 308 308 309 309 307 306 306 305 305 306 306 306 307 308 309 309 309 308 307 307 308 311 313 314 313 313 313 314 315 315 316 317 317 316 315 314 312 312 311 308 305 304 305 305 305 305 306 307 308 308 308 309 308 308 307 308 308 307 307 308 308 307 308 308 308 307 307 307 306
Wind_Speed
25 27 27 27 27 27 29 30 31 35 37 34 29 17 5 2 4 6 6 4 7 3 2 3 2 4 5 6 7 8 6 5 6 5 5 5 5 5 4 5 4 3 4 3 3 3 3 4 4 4 5 8 11 11 12 14 9 4 4 7 7 4 2 4 3 2 3 3 2 5 7 5 3 3 2 5 5 5 6 4 4 4 2 1 4 2 6
25 25 27 28 27 28 29 30 33 35 35 33 26 11 2 3 4 3 3 5 7 1 3 2 3 5 6 8 8 8 7 7 7 6 4 4 3 2 3 3 3 3 3 4 4 3 2 3 4 6 6 7 14 14 11 13 10 5 4 4 4 5 2 4 6 4 4 3 1 0 4 4 4 3 2 4 6 6 5 2 2 2 3 5 6 3 6
24 25 26 28 28 29 30 31 34 35 34 32 21 6 3 4 2 1 1 6 6 1 2 2 4 6 7 9 9 8 6 5 6 6 5 6 4 2 2 3 3 4 4 5 6 5 4 3 4 5 5 5 10 11 11 13 12 10 11 7 1 4 3 3 6 7 7 7 4 5 6 3 3 2 2 4 6 8 6 2 3 1 3 4 6 4 5
25 24 26 28 29 29 30 31 34 36 33 29 20 7 3 3 2 2 2 3 3 2 3 2 3 4 5 7 7 5 4 4 6 6 5 6 5 3 3 3 3 5 4 3 5 6 6 7 5 5 5 4 3 8 10 12 15 17 17 11 1 2 1 2 7 7 7 6 2 3 6 5 4 3 2 4 5 7 6 5 4 4 3 2 4 5 2
25 24 25 27 28 28 29 29 33 36 31 26 18 6 2 1 2 3 3 2 1 2 2 2 3 3 3 3 4 5 5 6 5 3 2 2 3 2 3 4 3 3 3 2 4 5 3 5 7 7 6 5 3 8 11 10 15 17 13 6 1 2 2 1 6 7 4 4 3 3 6 6 7 5 3 6 6 7 8 5 5 4 5 2 7 4 7
25 25 25 27 28 29 29 29 32 35 31 24 14 4 1 2 2 1 3 3 2 3 4 4 5 5 4 2 3 5 7 6 4 3 4 4 1 2 2 4 6 7 6 4 3 3 5 4 5 4 2 5 5 5 7 7 11 11 4 2 2 3 1 3 4 5 2 1 2 5 7 5 7 7 4 5 6 9 7 5 6 6 6 6 7 5 7
25 25 25 26 27 28 29 28 30 32 30 24 13 4 2 3 2 2 2 3 4 6 9 9 7 5 4 3 3 4 5 6 5 3 3 4 2 4 2 3 5 7 6 3 0 2 2 3 4 2 4 7 5 3 4 4 5 5 2 2 0 3 1 4 2 5 5 5 2 5 8 6 5 6 6 5 6 8 8 5 6 7 5 6 7 6 3
24 24 24 25 26 27 27 27 29 31 30 23 12 5 3 3 3 3 2 4 6 6 7 8 6 3 1 2 4 3 4 6 6 3 3 3 1 3 3 4 6 5 2 1 2 3 3 4 5 2 4 7 4 3 3 3 5 6 1 4 2 2 2 4 2 5 4 6 4 3 8 8 6 5 5 4 6 5 4 4 5 4 1 3 7 8 2
23 24 25 25 26 26 26 26 27 29 29 21 9 5 7 7 8 7 4 4 6 5 6 6 4 3 2 2 4 3 3 7 8 5 4 4 2 2 3 6 6 4 3 3 4 5 4 6 8 6 3 5 4 2 2 5 8 4 6 5 1 3 0 2 5 5 2 4 3 2 6 6 4 6 8 3 6 3 3 3 5 5 4 2 6 7 3
23 23 24 25 25 25 25 26 26 27 26 20 8 6 11 11 10 8 4 4 4 5 6 6 4 3 1 2 5 5 7 10 8 5 3 3 4 4 3 5 5 3 5 6 6 7 9 10 10 9 7 8 7 8 5 7 10 8 7 2 0 2 2 1 4 4 2 5 3 2 6 6 2 7 7 5 4 3 2 2 3 6 7 6 5 5 6
22 22 23 24 24 25 24 24 25 24 25 21 12 9 13 12 8 5 3 3 3 3 5 6 4 3 5 7 7 6 9 12 8 2 2 3 3 4 4 4 4 3 4 5 6 8 11 12 12 10 8 9 9 8 7 9 9 9 6 3 0 2 5 2 2 4 2 6 4 4 6 3 6 6 5 5 4 6 6 4 6 6 6 5 4 4 7
22 22 22 23 23 24 24 24 24 23 23 23 18 15 17 16 10 5 2 4 5 4 4 5 5 6 9 13 11 8 10 12 8 3 3 4 5 4 4 2 1 2 4 6 9 11 12 10 8 6 6 7 4 9 13 9 7 7 6 6 3 3 5 2 2 4 2 3 5 5 5 6 6 5 4 5 6 8 8 4 4 4 6 8 7 6 11
22 22 22 23 23 23 23 23 23 22 22 23 21 18 21 19 10 4 3 4 5 5 6 9 10 9 11 13 12 11 11 11 8 3 3 4 4 4 3 1 2 3 7 10 12 11 8 6 5 3 4 3 6 10 10 6 5 6 6 6 5 4 4 2 2 3 2 3 4 4 6 5 6 7 5 2 1 5 6 2 4 4 2 7 10 9 9
22 22 22 22 22 23 23 23 23 23 22 23 23 22 22 18 8 4 4 3 4 6 6 7 9 10 12 14 12 11 10 9 8 6 2 3 4 4 3 2 3 5 7 8 8 5 2 2 3 3 4 5 6 5 3 1 4 8 8 7 6 6 5 3 2 2 3 4 2 1 1 2 4 4 3 1 1 2 6 4 2 5 4 0 8 11 7
21 22 22 22 22 22 23 23 23 23 23 23 24 24 21 17 11 7 4 3 5 7 3 1 6 11 13 14 11 9 8 8 8 7 4 3 3 4 4 4 5 6 5 3 2 2 2 2 3 4 3 2 4 3 1 1 2 3 7 7 6 6 5 4 3 1 2 4 2 2 2 1 4 5 5 4 3 4 6 6 1 4 5 5 4 11 10
22 22 21 21 22 21 22 23 22 23 23 23 25 25 19 15 13 11 7 4 4 5 4 3 6 7 8 10 9 7 6 7 7 6 5 5 5 6 7 6 5 4 3 1 1 2 3 2 2 2 1 1 2 2 0 1 1 3 6 9 9 8 4 4 5 2 2 5 3 1 2 3 5 6 8 7 4 3 6 5 2 5 4 5 1 8 10
22 22 21 21 22 21 22 22 22 23 23 22 24 25 18 13 13 13 8 3 2 5 7 6 4 4 4 6 6 5 4 5 5 3 4 5 6 7 8 8 6 4 4 3 3 4 4 3 2 2 1 0 2 2 2 1 3 1 4 7 8 6 4 4 4 2 2 4 2 1 2 2 4 5 7 9 3 5 7 3 6 6 4 3 4 9 9
22 22 21 21 21 21 22 22 22 23 22 22 24 24 19 14 14 13 6 3 4 4 5 3 5 5 3 3 4 4 4 4 4 3 4 3 3 5 7 6 6 5 4 4 4 4 4 3 3 3 2 3 2 2 1 1 2 2 2 4 4 4 3 3 3 3 2 4 2 1 2 3 4 5 6 6 3 6 5 6 8 5 5 4 6 10 8
21 21 21 21 21 22 21 21 22 22 22 23 23 22 20 15 13 12 7 3 3 4 7 9 9 6 5 4 5 4 3 4 3 3 4 3 3 6 6 4 3 3 3 4 4 3 3 3 2 2 2 4 3 2 1 1 2 2 3 4 2 2 2 2 1 2 1 3 3 0 2 2 3 5 5 3 3 2 4 6 5 4 5 3 6 9 7
20 21 21 20 21 21 20 21 21 21 21 21 21 22 23 16 12 13 10 4 4 8 11 10 7 7 5 5 6 5 5 4 2 1 2 4 4 5 4 3 3 3 3 4 4 2 2 2 3 1 2 3 2 1 2 2 1 2 4 3 1 2 2 1 2 3 2 3 3 1 2 3 6 7 5 4 3 5 6 1 1 3 3 0 5 6 6
19 21 21 20 21 21 21 21 20 21 21 20 20 22 23 19 17 18 15 9 5 5 6 7 7 10 13 14 14 13 9 7 6 3 2 4 4 3 3 2 3 2 2 2 2 2 1 1 2 1 1 2 1 1 3 3 3 3 2 4 2 1 1 2 2 1 2 3 1 1 4 5 7 4 0 1 1 4 5 3 1 1 1 1 4 4 4
19 20 21 21 20 20 21 20 20 21 20 19 20 20 20 23 26 24 20 14 9 9 15 20 22 26 28 26 23 19 17 18 19 12 4 3 4 1 3 1 3 1 1 1 2 2 2 1 1 1 1 2 2 2 2 2 1 5 4 3 3 1 1 3 3 1 2 4 3 3 4 6 4 5 3 5 5 3 1 3 3 1 1 1 3 4 4
19 20 21 21 21 20 20 20 20 20 20 20 20 19 21 27 29 25 20 13 9 13 22 25 22 22 20 17 18 18 16 18 22 21 13 5 3 1 2 0 2 2 1 1 2 1 0 0 1 1 1 1 2 3 3 3 1 3 4 2 1 2 2 2 3 2 2 3 0 1 2 4 4 7 7 7 6 5 4 4 3 2 2 2 4 6 5
19 20 21 22 21 20 20 20 20 21 21 20 20 21 24 28 25 20 15 7 4 6 10 8 6 6 6 13 24 25 17 11 14 19 18 12 4 3 1 1 2 2 3 3 1 2 1 0 1 2 1 0 1 1 2 2 1 1 2 3 3 4 4 4 4 3 2 2 3 3 3 4 4 8 7 7 7 6 5 5 4 3 3 4 4 5 6
20 20 22 22 21 20 21 21 21 21 21 21 21 23 25 26 21 16 10 5 3 4 4 4 6 7 8 18 23 17 11 12 12 13 16 19 13 3 2 2 3 2 2 3 2 3 3 1 1 1 1 1 1 0 1 1 1 1 2 2 3 3 4 4 4 3 2 2 4 4 2 3 2 4 4 2 5 6 7 5 5 5 6 5 4 4 5
21 21 22 23 22 20 21 21 21 21 22 22 23 24 26 29 27 19 12 8 4 3 2 4 8 12 18 23 19 14 15 18 16 13 18 24 21 12 9 4 3 2 0 2 2 2 2 1 1 1 0 0 1 1 1 0 1 2 2 1 3 2 3 2 3 4 3 1 2 2 1 4 4 4 4 2 3 5 7 7 8 8 8 7 7 6 5
22 21 23 24 22 21 21 21 21 22 23 23 25 27 30 30 24 14 11 7 2 2 3 3 6 15 22 20 18 21 24 21 16 13 17 23 23 16 9 6 1 2 2 2 2 2 3 2 1 1 0 1 1 1 0 0 2 3 1 3 2 2 2 2 4 4 2 2 4 4 4 3 3 3 5 4 4 6 8 8 9 9 8 7 7 7 6
23 23 24 24 22 21 22 20 20 22 23 25 28 29 25 17 9 6 8 8 5 2 3 3 7 14 17 16 20 25 24 22 16 9 17 22 23 18 9 7 5 1 1 1 1 1 2 1 1 1 1 1 1 1 2 2 3 3 1 3 3 1 1 3 5 4 4 5 5 4 4 3 1 2 5 5 4 7 8 7 7 7 7 6 7 7 7
24 23 24 24 22 22 21 20 21 21 21 25 28 22 11 3 3 4 0 4 7 6 4 4 5 7 8 13 22 24 20 22 19 8 12 12 13 11 6 6 7 5 3 3 3 2 3 3 2 2 2 2 2 1 2 2 3 1 2 4 4 3 1 3 6 5 2 2 4 4 5 4 3 3 6 5 4 6 7 6 7 7 7 7 8 7 5
24 24 25 24 23 23 22 21 20 19 19 22 21 12 4 3 5 9 9 5 2 2 2 3 4 4 5 9 14 14 13 19 19 10 5 4 5 5 3 4 6 4 2 2 2 2 2 2 1 1 1 3 4 2 1 2 2 1 3 4 5 2 4 3 2 4 4 2 2 4 5 5 4 5 6 6 6 6 6 6 7 7 7 8 8 7 6
24 26 25 24 24 24 23 21 19 19 19 17 10 3 1 1 3 9 8 4 10 7 2 2 3 4 6 5 6 9 13 14 12 8 4 2 4 5 3 1 2 2 2 1 1 1 2 1 0 1 1 3 4 3 2 3 2 1 3 2 1 2 4 5 4 4 5 5 6 7 6 4 4 5 6 7 7 7 7 6 6 7 9 9 9 8 8
25 26 25 25 26 25 23 21 20 19 19 17 11 10 11 10 8 9 8 10 14 7 1 2 3 3 4 4 6 10 12 9 5 4 2 1 2 3 2 1 0 1 2 2 1 1 1 1 1 1 1 2 4 3 2 4 3 2 3 2 4 4 3 4 5 5 4 5 7 8 6 5 6 5 5 6 7 8 8 7 8 11 12 12 12 12 13
26 26 27 27 26 25 24 23 21 21 21 20 20 23 22 18 14 12 13 15 13 4 3 2 3 2 3 5 7 7 6 4 3 2 1 2 1 1 2 2 2 2 2 2 1 2 0 2 2 1 2 2 4 4 2 2 0 4 2 3 5 4 5 6 5 4 4 4 6 6 6 4 5 5 6 7 8 9 9 8 10 13 13 12 11 11 10
26 28 27 26 25 26 25 23 20 18 16 14 16 18 14 9 7 5 8 9 5 3 3 2 1 3 4 3 4 5 4 4 3 1 1 3 1 1 1 3 3 2 1 0 0 1 1 2 2 1 1 3 4 3 1 2 3 2 1 4 4 5 6 6 5 4 4 4 6 6 7 7 7 7 8 9 8 9 10 10 10 11 11 9 8 8 7
27 27 25 24 25 24 21 16 12 9 6 7 8 9 7 6 6 3 7 8 3 0 2 2 1 3 4 3 4 5 4 4 3 2 3 2 2 1 1 1 2 1 2 0 2 1 1 0 3 2 1 2 3 1 2 3 1 2 5 4 3 4 5 4 3 3 3 5 7 7 7 9 9 8 8 8 7 7 9 9 8 9 9 7 6 7 6
27 24 22 22 21 16 10 5 3 4 2 4 9 13 12 11 8 5 8 8 4 2 2 1 1 3 2 1 4 5 4 4 3 2 0 1 2 2 2 3 1 2 1 2 3 1 1 1 3 2 2 1 1 3 5 5 4 3 4 3 2 4 4 3 4 5 7 9 9 7 7 10 9 6 6 7 6 7 8 8 7 8 8 6 5 5 5
24 21 19 17 12 6 3 1 3 1 6 12 15 16 14 9 3 4 6 6 5 5 3 1 3 4 3 2 4 3 4 3 3 3 3 1 1 2 2 3 1 2 2 4 1 0 1 2 3 3 1 1 3 4 4 6 5 4 4 4 3 5 5 4 6 9 10 10 10 8 7 8 7 6 6 6 6 7 8 7 6 6 6 5 5 4 4
20 16 12 9 5 2 1 1 2 9 16 15 10 8 5 2 3 2 3 2 3 4 3 1 4 4 2 2 3 2 3 3 2 3 2 1 0 2 2 2 1 0 2 1 3 1 2 3 3 4 0 4 4 2 2 4 3 2 4 5 4 5 5 5 7 9 9 8 7 6 6 7 6 5 6 6 6 6 6 5 4 5 5 4 4 4 5
16 12 7 5 2 1 2 6 13 18 16 9 3 2 1 1 1 1 1 1 1 2 2 2 4 4 3 4 5 4 2 1 3 4 2 1 1 1 1 1 0 1 3 1 3 1 4 2 2 2 1 4 4 2 1 2 3 3 4 5 5 5 5 5 6 7 7 6 6 6 6 6 6 5 5 5 5 5 5 4 5 5 5 5 6 6 6
13 9 5 2 3 7 12 16 18 15 8 2 1 1 0 0 1 2 2 1 1 2 3 3 4 4 5 5 4 4 2 1 1 2 2 1 1 0 1 0 1 2 2 2 3 1 3 1 1 2 1 3 3 1 2 5 6 4 4 5 6 6 7 7 7 7 8 7 5 5 6 6 7 6 6 6 6 5 4 4 5 6 7 7 8 7 5
10 7 4 5 11 18 22 19 13 5 1 0 0 0 0 1 2 1 1 1 2 2 3 3 2 3 3 5 4 3 3 2 1 2 1 1 2 1 2 1 1 2 1 3 3 2 3 2 2 0 3 5 4 3 4 6 6 5 5 6 6 8 9 9 8 9 10 8 6 5 7 8 8 7 6 6 6 5 5 4 5 7 8 8 7 7 6
12 12 13 16 19 18 15 9 3 0 0 1 1 1 1 2 2 1 0 2 2 2 2 2 3 3 4 3 3 3 3 1 1 3 2 2 2 1 2 1 1 3 1 4 1 3 3 2 1 2 5 5 5 4 4 6 6 5 5 5 6 8 10 9 8 9 11 10 6 5 8 9 9 9 10 9 7 6 6 5 6 7 8 8 8 8 8
15 11 10 11 10 6 3 2 1 1 1 1 0 1 2 2 1 1 1 2 1 1 2 3 2 1 2 2 1 2 2 1 1 2 1 2 1 1 2 2 1 1 3 2 3 4 2 2 2 5 5 4 5 4 4 5 5 5 6 6 7 9 11 10 9 9 10 11 10 9 11 11 10 10 13 13 10 7 6 6 7 9 9 8 8 8 7
11 4 1 2 2 1 1 2 1 1 0 0 1 1 1 2 2 1 2 2 2 2 3 3 1 1 2 2 1 1 2 1 1 1 0 1 1 2 2 0 2 2 1 2 3 2 1 2 3 5 4 3 4 5 4 5 6 6 6 6 7 9 10 10 9 9 8 9 11 11 12 13 12 11 12 14 12 9 7 7 8 9 9 8 8 8 7
6 1 1 1 2 1 0 1 1 1 1 2 2 2 3 3 2 2 2 3 2 3 5 4 2 0 2 3 1 1 1 1 1 0 1 1 2 1 1 2 1 1 2 2 2 1 1 2 4 4 3 4 6 5 5 6 6 6 6 6 6 7 7 7 7 7 6 6 8 9 10 11 11 10 10 11 13 12 10 9 9 9 8 8 8 7 5
1 1 1 1 1 2 0 0 1 1 1 2 2 3 3 3 3 3 2 1 1 4 6 6 3 1 2 2 1 1 1 1 1 1 0 3 1 1 2 0 1 3 3 2 1 1 3 5 5 4 4 5 6 5 5 5 5 6 7 7 6 6 7 7 6 6 6 8 10 9 9 10 11 11 10 11 12 12 12 11 11 10 8 7 7 6 5
1 2 0 1 1 2 1 1 2 2 2 2 3 3 3 3 2 2 2 2 3 4 5 5 3 2 2 1 1 2 2 1 1 1 0 3 1 2 1 2 1 0 1 2 2 3 4 5 4 4 3 5 6 5 5 5 5 7 7 7 6 6 7 7 6 6 7 9 10 9 8 10 11 10 10 10 10 12 12 12 11 10 8 7 7 7 6
1 1 0 1 0 1 2 2 3 3 3 3 4 4 3 1 1 3 3 3 2 4 5 5 3 2 2 1 0 1 2 1 1 2 1 2 1 1 2 2 1 2 1 3 4 5 4 5 5 4 4 6 6 6 5 5 6 8 8 7 7 7 7 7 7 7 8 9 8 8 9 11 11 11 11 10 11 12 13 12 12 11 9 8 8 8 7
2 1 1 1 1 2 3 3 4 4 4 4 4 4 2 1 2 3 4 3 3 4 4 3 1 0 2 2 1 1 1 1 0 1 1 2 1 0 0 1 0 2 1 3 4 4 4 4 3 2 4 6 6 5 5 5 6 7 7 7 7 7 7 6 7 8 10 11 10 10 11 12 12 11 11 10 11 12 13 12 12 11 11 11 10 10 9
2 1 1 1 1 2 3 3 4 5 6 5 5 4 3 2 2 3 2 2 3 4 4 3 1 1 1 1 1 1 2 2 1 1 1 0 1 2 1 1 2 3 3 4 4 4 4 3 2 3 5 6 6 5 6 6 6 6 6 7 8 8 8 8 8 8 9 11 11 10 11 12 13 12 10 10 11 13 14 13 12 12 12 13 12 11 10
2 2 2 1 2 2 3 2 2 4 6 6 6 4 3 1 2 3 2 1 3 4 3 3 2 2 1 1 1 1 2 1 1 1 1 2 2 2 2 3 5 4 3 3 3 4 4 4 4 4 5 5 6 6 7 7 7 7 7 9 10 10 9 10 10 8 8 11 11 9 9 12 14 14 12 11 11 12 12 12 13 13 13 14 13 12 11
1 1 2 2 2 3 3 3 3 4 5 5 5 3 1 1 3 3 1 3 4 3 1 2 1 1 1 1 1 1 1 1 2 2 1 1 1 1 2 4 5 5 5 4 3 4 5 4 4 5 6 6 6 6 7 7 7 7 9 10 10 9 9 10 10 7 6 8 9 8 8 11 14 15 13 11 9 8 7 8 11 14 14 14 13 12 11
Wind_Direction
350 349 348 350 350 348 347 348 348 351 353 352 346 336 312 290 296 303 310 226 164 137 256 228 216 239 256 273 273 279 280 268 274 265 220 220 233 223 232 242 232 216 217 238 254 228 237 249 228 238 244 215 217 222 200 201 221 215 200 218 212 203 154 142 151 121 165 189 90 131 158 141 143 211 192 142 158 156 145 169 186 170 192 130 105 200 255
352 350 349 350 351 350 350 350 350 352 355 352 343 330 294 291 278 301 310 178 161 182 265 242 259 261 276 285 280 281 276 260 269 269 223 215 233 218 225 236 220 219 228 239 249 240 232 264 250 239 251 228 218 218 196 192 215 226 204 207 200 210 215 127 127 122 149 171 22 254 203 174 163 201 198 163 161 149 148 143 106 161 217 158 137 219 251
352 351 350 350 352 352 351 352 351 350 354 355 347 316 278 308 255 241 234 170 158 209 254 256 281 285 293 292 291 293 273 250 264 269 251 242 238 214 233 243 239 250 261 261 261 251 227 247 273 250 244 240 222 210 187 189 207 226 238 255 243 179 185 122 138 157 168 174 191 205 195 178 159 161 187 188 156 146 164 160 92 198 238 156 146 203 253
352 351 350 351 352 352 351 352 352 351 355 357 348 313 269 324 310 305 289 175 168 239 247 250 263 280 301 300 299 299 285 284 285 275 257 236 219 212 242 249 254 250 249 267 264 243 218 219 257 277 266 275 230 177 176 193 206 221 240 261 316 124 168 115 134 156 177 179 197 172 143 140 167 178 226 225 174 131 117 117 148 191 185 179 215 191 145
351 351 351 351 352 353 353 354 354 354 358 0 351 316 239 328 335 329 325 296 249 244 225 209 226 260 304 315 311 299 296 307 304 287 276 234 204 222 243 231 235 233 212 229 250 255 254 239 256 272 264 282 270 167 171 198 208 215 237 266 84 105 312 307 134 144 175 186 187 146 115 128 162 169 236 236 187 121 100 136 190 163 124 224 260 192 129
350 351 352 352 352 354 355 355 356 356 359 5 2 334 267 352 336 298 303 293 304 315 292 271 265 266 264 268 288 285 288 296 296 304 333 334 212 189 239 220 222 234 232 235 265 308 330 312 281 281 303 312 300 175 169 206 202 197 229 333 95 123 256 259 156 123 80 6 184 147 114 123 161 161 188 219 179 138 134 180 195 153 146 210 233 184 150
349 350 352 351 352 353 354 355 357 358 1 7 11 358 334 345 311 295 295 284 294 296 289 292 294 279 256 241 249 265 282 286 270 254 307 309 216 177 207 241 242 249 236 205 273 333 326 315 300 333 7 323 295 156 161 217 173 127 61 318 161 119 234 257 162 92 39 359 326 151 129 127 155 167 185 187 163 156 160 177 175 161 178 194 173 157 148
347 348 350 351 352 353 353 355 358 359 2 9 14 11 10 355 306 311 305 285 288 286 293 306 306 289 277 256 242 231 250 278 290 273 242 276 296 165 212 280 298 302 305 149 235 232 191 219 260 309 11 328 312 95 139 182 104 78 342 259 229 121 237 259 90 71 9 351 349 163 148 148 170 209 230 171 126 143 171 158 137 129 213 203 140 126 98
346 347 349 351 353 353 353 356 358 0 4 7 5 353 351 326 294 296 299 299 310 315 320 323 314 321 352 302 288 290 271 287 307 303 239 221 213 201 253 301 306 315 350 334 280 272 255 244 248 247 252 273 289 311 224 149 115 139 221 243 259 101 223 305 62 70 335 336 347 175 135 123 159 224 246 204 125 142 208 191 162 152 163 140 109 121 174
345 346 348 350 352 352 352 355 357 1 4 5 356 329 334 322 299 298 292 283 310 325 324 327 328 333 332 273 283 288 291 303 314 313 275 221 211 228 272 296 299 326 341 321 289 288 291 279 267 257 238 234 255 266 234 140 132 179 202 194 157 109 106 26 74 96 279 314 329 128 99 87 220 235 226 197 147 152 186 231 202 165 148 146 158 185 192
344 345 347 349 350 350 351 353 356 359 2 2 352 320 322 326 313 307 297 276 300 333 328 331 341 327 313 311 306 296 307 320 328 318 301 285 261 266 270 274 300 320 289 275 278 288 288 280 270 261 244 244 257 245 198 150 156 192 177 121 337 76 101 118 91 113 237 311 357 87 107 152 236 237 197 177 169 156 161 206 211 176 149 145 169 184 156
343 344 345 347 349 349 350 351 354 357 358 356 347 326 326 331 319 297 309 302 306 328 327 314 310 308 318 326 333 335 326 322 315 264 235 266 282 285 280 281 314 279 272 296 314 310 301 291 281 271 252 251 229 172 171 176 188 190 147 122 122 63 82 111 66 105 169 338 46 109 172 221 247 273 254 215 191 160 161 203 231 172 138 122 120 152 161
343 342 342 345 347 348 349 349 351 354 354 352 345 331 330 334 324 293 321 302 294 325 328 305 298 305 322 329 332 332 325 317 313 290 224 251 286 299 301 270 211 270 307 316 311 307 307 307 315 318 305 346 84 129 165 183 159 143 114 107 120 102 95 111 73 95 129 45 73 152 211 257 295 314 308 284 107 121 132 104 350 357 94 135 147 170 177
341 341 341 343 345 346 347 347 348 349 350 349 343 334 332 336 328 296 315 302 292 310 308 300 310 324 330 329 326 324 327 335 344 347 333 280 288 293 285 257 254 281 295 298 301 313 343 338 352 9 358 27 80 125 207 239 118 120 105 99 112 114 109 86 56 83 124 111 109 230 282 324 325 324 312 310 42 142 144 133 331 327 340 10 165 167 168
340 340 340 340 342 344 345 345 346 347 348 347 341 337 340 345 336 310 292 292 305 305 284 291 333 332 326 322 324 329 337 351 353 338 319 299 295 294 284 273 281 288 278 261 293 352 32 24 33 40 20 49 125 166 258 354 30 75 98 104 94 93 111 122 110 84 90 101 78 18 61 207 258 267 275 272 233 192 144 119 280 296 341 339 195 167 158
338 338 339 339 340 342 343 344 344 344 345 347 342 338 344 358 351 330 310 298 299 290 278 298 319 321 314 309 317 332 342 346 346 335 330 338 338 327 315 305 300 309 323 357 26 33 45 43 56 88 100 122 140 177 231 97 43 15 61 75 64 58 71 101 98 65 60 99 102 114 151 214 244 252 277 284 248 173 118 106 259 279 335 349 192 162 153
337 336 337 338 337 339 341 342 343 343 345 348 342 333 337 0 356 335 315 289 279 272 274 292 311 314 310 306 314 336 342 331 333 333 325 329 329 327 326 323 324 343 13 37 40 32 37 26 17 55 82 333 104 154 202 107 103 77 48 52 49 45 35 49 70 57 73 99 95 215 191 243 260 249 273 284 279 93 99 163 244 266 311 321 169 162 162
337 335 335 336 336 337 339 339 341 342 343 346 340 330 332 351 355 340 314 278 299 274 250 301 331 306 277 292 307 321 323 315 322 318 297 296 317 324 322 328 341 349 7 45 49 29 27 18 9 30 349 319 19 124 189 118 127 163 110 71 55 47 43 61 101 96 82 103 103 293 260 265 261 252 271 292 348 75 112 207 235 259 293 276 180 166 169
337 335 333 334 334 335 337 338 339 340 341 344 343 332 330 346 3 358 338 294 293 277 275 303 309 269 242 272 283 285 304 303 310 335 326 320 323 315 309 317 348 343 358 46 53 33 30 13 337 21 25 341 352 39 302 222 178 167 119 98 80 74 48 28 126 131 97 112 115 3 283 267 275 281 299 347 62 147 210 226 234 259 288 277 161 156 158
337 334 332 333 332 332 335 335 336 338 339 342 343 330 322 331 353 353 340 308 287 292 287 282 258 233 251 287 275 277 308 312 310 358 327 300 310 338 352 350 346 348 4 35 35 18 35 8 323 14 43 334 309 18 336 299 271 111 127 139 159 147 128 325 222 183 118 79 75 100 203 282 324 324 330 27 104 196 215 234 336 289 292 76 125 137 150
336 334 332 331 330 330 332 332 333 336 335 338 340 328 316 318 330 336 330 310 293 294 286 275 266 271 279 275 263 257 255 248 249 264 296 293 306 35 70 288 296 341 1 27 33 8 8 348 326 4 34 316 314 31 9 348 343 356 96 138 122 93 159 191 198 173 104 106 124 206 209 268 318 353 69 307 288 204 185 145 85 350 323 105 102 105 148
334 333 331 329 327 328 330 329 331 333 331 334 336 325 310 311 321 330 328 306 268 246 265 278 286 286 283 279 271 257 243 245 251 249 240 297 312 90 128 257 289 283 282 39 65 19 340 2 29 37 16 350 348 342 8 76 18 334 353 88 98 16 245 166 132 62 108 143 190 235 242 272 325 42 36 330 343 9 109 130 115 59 358 83 97 89 96
331 332 329 326 325 326 326 326 329 330 329 331 331 321 309 308 316 329 330 305 261 258 267 272 283 287 283 291 302 296 280 264 253 241 225 223 301 339 142 220 312 276 285 32 104 164 263 129 117 93 23 341 351 336 353 55 84 333 350 30 83 347 354 105 107 104 99 96 89 277 313 329 13 47 25 345 350 9 26 56 59 12 353 53 91 98 93
328 329 327 324 324 325 324 324 326 326 326 327 324 316 309 305 311 327 332 306 274 296 282 271 292 285 275 314 321 319 317 297 259 244 230 217 226 354 351 273 310 317 328 349 77 125 87 48 83 72 99 202 39 18 1 32 45 13 17 359 324 341 22 70 94 111 106 64 308 308 12 13 33 55 34 345 337 360 23 38 22 357 21 48 65 87 93
325 326 326 323 322 323 323 322 323 324 324 324 321 317 310 304 306 319 319 289 280 315 317 310 285 266 300 318 311 304 310 311 292 265 237 224 219 192 120 241 276 268 292 329 14 57 45 17 52 67 133 164 83 111 247 38 62 86 64 24 307 337 28 64 84 79 98 187 247 275 331 336 354 72 75 313 320 0 20 22 18 21 27 27 30 57 81
322 323 325 324 322 322 321 320 322 323 322 321 320 316 307 301 302 299 281 264 265 259 280 304 284 294 322 325 310 300 313 312 296 267 240 233 227 202 159 167 259 262 154 14 21 60 76 59 70 86 198 174 113 136 243 304 106 96 80 243 254 323 27 59 94 75 71 127 217 243 350 358 2 48 71 347 337 16 23 18 23 29 22 19 27 41 69
319 320 323 323 321 319 319 320 321 321 322 322 319 312 304 301 300 284 248 239 259 310 298 278 284 307 317 313 303 311 321 320 307 271 238 231 230 217 175 139 99 344 13 28 17 71 93 45 1 127 174 316 14 76 318 295 84 77 35 290 299 52 62 80 97 99 128 202 204 180 137 86 28 34 42 23 27 50 41 24 22 22 12 12 30 37 51
319 320 321 319 317 317 318 319 319 320 322 323 320 316 310 303 290 247 240 241 226 253 301 271 283 307 310 303 307 318 329 336 329 263 220 224 231 224 193 131 112 57 309 111 62 76 116 129 257 182 170 316 354 15 341 1 47 55 331 320 358 56 169 155 134 150 201 213 201 171 131 124 157 59 53 45 53 64 55 32 19 17 10 19 42 49 53
318 318 317 315 315 316 315 316 317 320 325 327 326 327 337 17 114 124 220 263 239 245 294 303 290 299 305 303 307 314 330 341 333 269 213 230 240 224 194 149 152 177 192 152 127 146 182 189 194 193 189 160 136 3 344 40 59 23 301 310 308 291 267 148 152 161 175 181 175 153 122 118 134 92 66 50 52 68 62 34 18 21 25 35 47 50 59
316 316 316 315 312 312 312 312 315 320 326 330 330 332 355 53 101 120 109 74 5 298 313 311 297 300 298 296 296 298 315 329 323 294 234 247 262 247 226 184 175 167 131 110 126 149 182 215 240 231 189 136 115 104 142 112 87 284 264 263 262 298 21 33 127 133 108 109 135 119 109 110 106 86 63 41 37 56 58 31 19 30 41 47 51 42 35
314 313 313 311 308 310 311 311 317 323 322 322 329 348 103 62 140 149 140 32 1 9 12 255 272 298 296 274 265 283 299 308 305 287 259 252 271 278 279 210 179 117 75 33 352 113 137 170 53 55 141 131 114 112 128 108 88 282 265 253 206 97 48 15 9 58 97 107 91 76 73 72 72 66 46 27 28 48 55 34 20 39 49 47 50 45 34
313 312 311 308 307 310 311 313 318 318 308 297 280 259 259 268 254 216 224 297 322 343 38 275 297 315 304 287 281 289 294 293 285 281 291 316 299 294 305 357 111 127 103 88 21 345 157 167 126 37 22 115 108 91 74 91 113 244 281 51 87 100 90 64 34 26 54 92 93 84 64 44 52 69 63 42 39 50 53 40 36 49 53 45 39 39 38
311 310 309 307 309 311 312 313 313 306 298 288 274 268 273 283 284 266 258 277 291 273 171 253 302 279 269 293 302 304 309 319 322 317 296 285 283 304 329 357 35 39 54 82 144 257 229 108 97 22 341 37 87 88 65 60 293 264 275 87 96 99 95 94 86 55 41 63 88 104 109 93 79 83 77 62 52 51 51 49 51 52 50 44 34 26 26
311 310 309 311 314 313 310 309 305 296 288 279 272 277 287 302 307 275 231 229 238 222 211 235 285 273 282 317 318 311 331 344 332 316 250 275 270 138 279 333 24 32 345 4 126 308 339 52 91 92 343 6 55 79 62 323 306 305 47 81 92 91 80 74 69 58 51 66 80 96 115 113 93 73 64 56 50 52 52 50 53 54 50 46 35 21 19
312 312 314 316 316 313 309 304 291 275 262 253 270 301 319 303 294 268 198 189 165 98 256 225 198 267 304 344 311 293 320 338 308 227 203 261 303 126 160 18 35 7 262 271 63 34 333 80 113 109 12 15 50 80 221 230 237 85 85 82 81 90 87 82 75 43 32 67 87 93 99 95 83 75 73 63 52 58 59 51 52 59 56 44 30 26 31
315 316 318 318 315 312 311 299 234 196 204 270 295 314 311 290 280 242 205 206 203 200 227 290 270 231 231 301 279 290 340 349 306 278 208 330 333 356 79 89 99 257 277 49 43 14 357 95 104 72 8 42 126 227 214 180 158 132 122 120 97 90 102 133 125 82 56 67 83 86 85 87 86 84 85 75 59 63 66 56 50 57 57 45 31 31 37
320 321 319 319 319 318 332 75 139 174 304 298 298 301 294 278 250 197 204 217 226 212 199 314 274 233 202 217 254 298 345 329 314 338 350 344 305 323 48 84 170 261 23 43 19 254 39 52 79 78 41 259 242 245 209 169 168 173 150 125 85 76 88 102 101 88 74 73 76 71 69 79 85 83 82 76 65 67 71 65 56 61 64 54 42 45 54
328 328 323 324 334 3 54 90 333 315 308 300 294 291 275 201 135 166 205 193 204 207 179 200 254 247 208 214 245 282 303 294 345 8 326 279 312 335 17 76 164 184 59 329 255 218 52 24 55 87 155 281 299 294 199 186 191 170 129 120 109 100 99 97 99 99 96 92 93 93 88 83 79 80 85 86 81 80 84 82 70 68 67 55 48 57 64
343 343 336 331 323 264 264 303 315 317 312 299 263 238 239 134 110 245 231 167 184 214 189 210 238 226 187 216 262 276 250 298 8 0 319 305 348 328 358 17 302 66 73 273 270 39 62 22 24 66 335 307 338 13 136 133 98 91 113 124 123 111 95 83 87 104 117 128 139 144 134 118 111 112 110 104 96 88 85 82 72 66 62 53 47 50 51
359 354 345 336 305 300 305 312 317 321 321 302 175 154 129 169 210 205 195 191 243 226 198 204 232 225 190 198 247 272 244 200 338 304 279 287 267 154 79 3 266 79 73 274 275 64 94 111 58 69 233 258 270 241 143 106 97 107 126 125 113 99 90 87 90 100 105 105 108 114 117 119 124 128 128 121 112 99 92 93 93 88 78 65 51 45 42
356 351 329 304 303 306 310 315 321 326 347 80 3 25 169 254 255 230 170 218 257 248 216 198 248 277 234 188 195 240 260 259 183 133 116 292 292 65 70 277 267 74 77 254 259 76 85 82 60 155 229 234 233 207 146 117 115 126 126 114 101 95 94 92 93 99 102 99 94 98 104 110 118 125 127 124 119 116 116 116 108 101 94 84 69 58 60
310 302 294 294 298 300 305 315 326 332 98 43 2 281 253 242 253 279 242 223 236 254 245 212 214 249 250 210 189 218 247 263 68 80 78 276 276 70 87 284 10 65 209 244 263 64 67 67 66 250 249 243 231 207 158 136 140 142 128 114 105 104 106 103 98 103 111 113 110 103 104 107 114 123 125 123 120 123 128 126 114 105 99 92 83 74 74
308 297 287 289 293 290 289 303 271 165 55 59 121 279 305 300 282 280 270 265 280 303 272 257 256 291 303 307 287 264 266 271 83 84 103 249 268 61 64 29 26 166 226 249 54 66 85 136 190 234 246 236 219 205 167 144 140 129 118 117 115 114 115 116 115 115 116 116 116 114 110 109 116 126 128 127 124 121 125 128 124 115 105 93 84 77 73
325 316 230 264 281 237 234 294 285 137 132 195 173 179 253 270 272 283 282 292 312 305 276 271 310 350 304 297 322 314 304 341 54 68 272 279 11 60 66 306 255 239 258 33 54 65 137 191 222 248 250 205 190 190 165 142 130 118 113 114 113 114 116 118 119 118 117 119 122 120 113 113 119 125 125 127 129 129 130 130 126 119 111 103 93 83 76
338 358 99 336 311 280 189 302 288 200 216 223 201 187 193 209 255 289 264 229 240 297 307 311 350 47 267 278 335 356 294 341 31 327 240 49 40 43 197 225 243 32 52 54 57 44 317 261 269 279 250 181 175 177 165 152 140 127 116 107 104 109 112 113 117 123 127 128 127 120 112 113 120 125 130 134 138 140 142 142 136 127 119 112 105 98 96
316 266 68 41 311 287 262 234 261 240 221 215 214 212 203 203 228 265 282 276 312 329 320 312 315 329 294 298 333 338 333 37 26 274 145 83 70 251 232 177 49 44 44 47 71 161 229 243 258 263 222 178 165 163 163 155 138 122 120 120 120 113 104 101 107 115 122 124 123 121 119 119 124 135 145 146 144 145 151 154 148 139 135 135 134 129 128
288 277 119 99 299 284 220 193 237 243 241 249 258 251 235 219 226 257 304 320 327 333 324 310 306 318 324 324 335 314 319 23 2 283 47 87 103 272 348 52 67 138 115 131 195 226 234 240 247 242 200 155 144 154 159 140 121 120 124 127 127 118 109 106 105 113 126 130 126 125 128 127 129 137 143 140 138 146 155 161 158 151 151 160 161 155 150
310 304 204 165 285 248 225 266 305 303 285 286 286 267 241 217 335 321 306 302 326 349 340 329 328 335 328 334 3 282 290 339 338 284 298 90 87 346 18 35 312 275 171 163 190 212 221 223 228 222 177 143 143 156 158 140 132 132 129 127 127 124 117 109 103 113 132 138 133 134 141 139 135 136 137 137 143 150 154 159 164 165 167 172 168 160 157
266 290 261 245 310 288 265 286 328 325 307 309 321 314 302 339 332 306 305 332 358 344 313 285 239 223 295 307 6 337 293 280 238 291 352 60 90 193 118 98 302 299 267 194 194 202 211 220 230 206 156 146 145 148 145 138 136 133 128 128 130 129 124 115 106 113 131 141 143 149 152 145 139 140 140 142 154 162 160 160 166 171 175 176 171 161 157
226 240 245 220 243 296 304 338 359 334 318 329 343 337 332 349 335 310 321 14 15 354 333 323 12 46 304 316 18 348 284 255 178 80 29 10 185 166 128 144 226 225 210 195 185 182 191 198 185 153 149 146 140 136 132 127 124 123 126 130 131 131 127 112 95 98 125 142 146 150 150 146 147 152 151 149 160 168 167 166 173 178 180 180 177 171 166
241 244 256 226 212 254 291 323 326 300 298 309 308 290 270 267 286 281 279 62 56 35 10 340 326 347 8 20 10 282 264 274 46 59 237 233 189 130 139 208 221 205 184 170 158 156 164 174 165 149 141 135 132 133 130 125 124 129 135 137 138 137 128 107 92 99 134 144 135 131 143 153 161 168 165 156 156 163 168 175 184 186 182 181 184 183 179
248 252 280 276 256 243 250 262 266 265 269 278 278 271 270 305 280 269 293 63 62 49 353 302 309 1 26 246 259 279 300 13 20 8 338 321 351 67 201 215 201 170 149 143 142 145 156 176 179 161 145 136 131 127 122 121 129 139 142 140 139 139 127 106 96 108 150 151 130 121 133 150 163 172 170 156 152 161 172 182 188 187 181 178 180 183 184